Latest Weather Observations for Warwick

IDQ60801

Issued at 5:31 am EST Friday 19 December 2014 (issued every 30 minutes, with the page automatically refreshed every 10 minutes)

About weather observations | Map of weather stations | Latest weather observations for QLD | Other Formats
Station Details ID: 041525 Name: WARWICK Lat: -28.21 Lon: 152.10 Height: 475.4 m
Data from the previous 72 hours. | See also: Recent months at Warwick
Date/Time
EST
Temp
°C
App
Temp
°C
Dew
Point
Rel
Hum
%
Delta-T
°C
Wind Press
QNH
hPa
Press
MSL
hPa
Rain
since 9 am
mm
Dir
 
Spd
km/h
Gust
km/h
Spd
kts
Gust
kts
19/05:30am 17.0 18.9 15.8 93 0.7 CALM 0 0 0 0 1013.6 1011.1 20.0
19/05:00am 17.1 19.0 15.8 92 0.8 CALM 0 0 0 0 1013.4 1010.9 20.0
19/04:30am 17.7 18.4 15.5 87 1.3 WNW 6 9 3 5 1013.1 1010.6 20.0
19/04:00am 18.1 18.1 15.1 82 1.8 NNW 9 13 5 7 1012.9 1010.4 20.0
19/03:30am 18.2 17.3 15.9 86 1.4 N 15 19 8 10 1012.6 1010.2 20.0
19/03:00am 18.3 17.8 16.0 86 1.4 N 13 19 7 10 1012.4 1010.0 20.0
19/02:30am 18.4 17.4 15.6 84 1.7 NNW 15 19 8 10 1012.4 1010.0 20.0
19/02:00am 18.3 17.1 16.2 87 1.3 N 17 19 9 10 1012.8 1010.3 19.8
19/01:30am 18.2 16.5 15.7 85 1.5 N 19 24 10 13 1013.1 1010.6 19.8
19/01:00am 19.5 19.9 18.1 92 0.9 NNW 13 17 7 9 1013.8 1011.4 19.6
19/12:30am 19.6 19.8 17.7 89 1.2 NNW 13 17 7 9 1014.2 1011.8 18.8
19/12:00am 20.3 20.9 17.8 85 1.6 NNW 11 17 6 9 1014.1 1011.7 18.6
 
Date/Time
EST
Temp
°C
App
Temp
°C
Dew
Point
Rel
Hum
%
Delta-T
°C
Wind Press
QNH
hPa
Press
MSL
hPa
Rain
since 9 am
mm
Dir
 
Spd
km/h
Gust
km/h
Spd
kts
Gust
kts
18/11:30pm 20.3 21.7 18.6 90 1.1 NNW 9 11 5 6 1013.6 1011.1 18.4
18/11:00pm 20.7 21.6 19.3 92 0.9 N 13 17 7 9 1013.0 1010.5 18.0
18/10:30pm 21.0 24.1 19.6 92 0.9 NE 2 9 1 5 1013.2 1010.7 17.4
18/10:00pm 21.0 24.6 19.8 93 0.8 CALM 0 0 0 0 1013.6 1011.1 17.2
18/09:30pm 21.2 24.7 19.5 90 1.1 CALM 0 6 0 3 1013.1 1010.6 17.0
18/09:00pm 21.5 23.0 19.0 86 1.6 NW 9 15 5 8 1013.4 1010.9 17.0
18/08:30pm 21.5 24.5 19.2 87 1.5 SSW 2 7 1 4 1013.3 1010.8 17.0
18/08:00pm 21.4 23.8 19.7 90 1.1 WNW 6 9 3 5 1012.9 1010.4 17.0
18/07:30pm 21.5 23.9 19.7 89 1.2 WNW 6 13 3 7 1012.5 1010.1 17.0
18/07:00pm 21.3 23.4 20.1 93 0.8 W 9 17 5 9 1012.9 1010.4 16.8
18/06:30pm 21.6 21.8 19.3 87 1.5 NNE 17 26 9 14 1011.8 1009.4 16.8
18/06:00pm 21.5 23.3 20.3 93 0.8 NE 11 19 6 10 1011.7 1009.2 16.8
18/05:30pm 21.7 22.9 20.0 90 1.1 N 13 17 7 9 1011.9 1009.5 16.8
18/05:00pm 21.1 24.8 20.0 93 0.7 CALM 0 0 0 0 1011.9 1009.5 16.6
18/04:30pm 20.8 22.9 20.2 96 0.4 W 9 17 5 9 1011.5 1009.0 16.2
18/04:00pm 20.2 16.9 20.0 99 0.1 WSW 37 57 20 31 1011.0 1008.5 11.6
18/03:50pm 21.7 18.5 20.2 91 1.0 WSW 37 59 20 32 1010.6 1008.1 0.8
18/03:40pm 26.4 26.5 19.1 64 4.8 NNW 17 54 9 29 1008.4 1005.9 0.0
18/03:30pm 28.3 28.3 19.7 59 5.7 NNE 19 24 10 13 1006.7 1004.2 0.0
18/03:00pm 29.5 28.0 17.8 49 7.6 NNE 22 32 12 17 1006.8 1004.3 0.0
18/02:30pm 30.2 28.2 17.4 46 8.3 NNE 24 32 13 17 1006.8 1004.3 0.0
18/02:00pm 30.2 29.1 17.7 47 8.1 NNE 20 32 11 17 1007.2 1004.7 0.0
18/01:30pm 31.5 30.8 18.6 46 8.5 NNE 20 28 11 15 1007.5 1005.0 0.0
18/01:00pm 32.3 30.8 18.5 44 9.1 N 24 33 13 18 1008.4 1005.9 0.0
18/12:30pm 32.4 30.8 15.9 37 10.5 NW 19 32 10 17 1008.9 1006.4 0.0
18/12:00pm 32.2 30.9 15.9 37 10.4 NW 17 26 9 14 1009.6 1007.1 0.0
18/11:30am 31.4 29.1 15.6 38 10.0 NNW 22 33 12 18 1010.1 1007.7 0.0
18/11:00am 30.7 28.7 16.5 42 9.1 N 22 35 12 19 1010.2 1007.8 0.0
18/10:30am 29.9 27.8 14.8 39 9.4 NNW 19 35 10 19 1010.9 1008.4 0.0
18/10:00am 28.4 28.1 17.3 51 7.1 N 15 22 8 12 1011.2 1008.7 0.0
18/09:30am 27.5 28.3 17.4 54 6.5 NNE 9 13 5 7 1011.6 1009.1 0.0
18/09:00am 27.3 27.7 17.3 54 6.4 NNE 11 17 6 9 1012.0 1009.6 28.8
18/08:30am 26.5 27.9 18.7 62 5.1 NNW 9 15 5 8 1012.1 1009.7 28.8
18/08:00am 24.0 27.7 19.9 78 2.7 CALM 0 0 0 0 1012.3 1009.9 28.8
18/07:30am 22.9 26.4 19.5 81 2.2 CALM 0 0 0 0 1012.5 1010.1 28.8
18/07:00am 21.3 24.7 19.3 88 1.3 CALM 0 0 0 0 1012.3 1009.9 28.8
18/06:30am 21.0 24.5 19.6 92 0.9 CALM 0 0 0 0 1011.8 1009.4 28.8
18/06:00am 20.7 24.1 19.3 92 0.9 CALM 0 6 0 3 1012.0 1009.6 28.8
18/05:30am 20.2 23.2 19.3 95 0.6 SE 2 7 1 4 1011.7 1009.2 28.8
18/05:00am 20.2 23.6 19.3 95 0.6 CALM 0 0 0 0 1011.6 1009.1 28.8
18/04:30am 20.3 23.8 19.5 95 0.5 CALM 0 0 0 0 1011.5 1009.0 28.8
18/04:00am 20.6 23.7 19.4 93 0.8 N 2 7 1 4 1011.3 1008.8 28.8
18/03:30am 20.7 24.2 19.5 93 0.8 CALM 0 6 0 3 1011.2 1008.7 28.8
18/03:00am 20.8 24.1 19.2 90 1.0 CALM 0 0 0 0 1011.6 1009.1 28.8
18/02:30am 20.7 23.3 18.5 87 1.4 NE 2 9 1 5 1011.3 1008.8 28.8
18/02:00am 21.3 23.0 18.5 84 1.8 E 7 11 4 6 1010.8 1008.3 28.8
18/01:30am 21.4 25.0 19.7 90 1.1 CALM 0 0 0 0 1010.8 1008.3 28.8
18/01:00am 20.9 24.2 19.2 90 1.1 CALM 0 0 0 0 1010.8 1008.3 28.8
18/12:30am 20.8 22.8 18.8 88 1.3 ESE 6 13 3 7 1010.8 1008.3 28.8
18/12:00am 20.4 21.6 18.2 87 1.4 SE 9 20 5 11 1010.8 1008.3 28.8
 
Date/Time
EST
Temp
°C
App
Temp
°C
Dew
Point
Rel
Hum
%
Delta-T
°C
Wind Press
QNH
hPa
Press
MSL
hPa
Rain
since 9 am
mm
Dir
 
Spd
km/h
Gust
km/h
Spd
kts
Gust
kts
17/11:30pm 20.0 21.0 18.6 92 0.9 ENE 11 17 6 9 1010.7 1008.2 28.8
17/11:00pm 19.9 19.6 18.3 90 1.0 E 17 30 9 16 1010.7 1008.2 28.8
17/10:46pm 19.4 17.7 17.3 88 1.3 ENE 22 48 12 26 1011.1 1008.6 28.8
17/10:36pm 18.6 14.6 16.8 89 1.1 NE 33 72 18 39 1010.8 1008.3 28.2
17/10:35pm 18.7 15.0 16.9 89 1.1 NE 32 72 17 39 1011.0 1008.5 27.4
17/10:34pm 18.8 16.0 17.2 90 1.0 NE 28 72 15 39 1011.2 1008.7 25.8
17/10:30pm 21.9 18.8 17.6 76 2.7 SSW 30 52 16 28 1011.8 1009.4 18.8
17/10:15pm 22.6 22.0 20.5 88 1.4 S 24 44 13 24 1010.8 1008.3 3.8
17/10:00pm 24.7 25.2 17.5 64 4.6 SSW 11 17 6 9 1010.2 1007.8 1.8
17/09:30pm 22.7 23.3 17.7 73 3.2 SW 11 17 6 9 1009.4 1006.9 1.8
17/09:00pm 26.3 26.2 15.9 52 6.5 ENE 11 15 6 8 1008.4 1005.9 1.8
17/08:30pm 23.4 26.4 18.4 73 3.2 CALM 0 0 0 0 1007.9 1005.4 1.8
17/08:00pm 23.9 26.5 17.6 68 4.0 CALM 0 0 0 0 1007.5 1005.0 1.8
17/07:30pm 24.2 26.4 19.5 75 3.1 NE 7 11 4 6 1007.1 1004.6 1.8
17/07:00pm 25.6 27.0 18.7 65 4.5 NNE 9 9 5 5 1006.7 1004.2 1.8
17/06:30pm 24.6 25.8 19.1 71 3.6 ENE 11 15 6 8 1006.5 1004.0 1.8
17/06:00pm 26.8 26.8 16.3 52 6.6 ENE 11 15 6 8 1005.8 1003.3 1.8
17/05:30pm 27.8 27.0 17.0 51 6.9 N 17 20 9 11 1005.4 1002.9 1.8
17/05:00pm 26.4 28.2 21.1 72 3.6 NNE 13 17 7 9 1005.5 1003.0 1.0
17/04:53pm 27.5 28.0 19.2 60 5.5 ENE 15 19 8 10 1005.4 1002.9 0.4
17/04:30pm 32.8 29.6 11.2 26 12.9 NE 19 24 10 13 1005.1 1002.6 0.0
17/04:00pm 32.1 29.3 11.3 28 12.4 NE 17 22 9 12 1005.3 1002.8 0.0
17/03:30pm 32.0 30.8 14.1 33 11.1 E 13 19 7 10 1005.3 1002.8 0.0
17/03:00pm 34.0 33.0 12.4 27 13.2 ENE 9 22 5 12 1005.3 1002.8 0.0
17/02:30pm 33.9 32.7 11.5 25 13.4 NNE 9 15 5 8 1005.9 1003.4 0.0
17/02:00pm 33.4 32.1 14.9 32 11.7 NW 15 20 8 11 1006.3 1003.8 0.0
17/01:30pm 33.9 32.3 12.9 28 12.9 W 13 22 7 12 1006.5 1004.0 0.0
17/01:00pm 34.8 32.5 11.7 24 14.0 SSW 15 26 8 14 1006.7 1004.2 0.0
17/12:30pm 34.6 32.0 12.1 25 13.7 WSW 17 28 9 15 1007.0 1004.5 0.0
17/12:00pm 33.4 32.4 14.6 32 11.8 WNW 13 22 7 12 1007.5 1005.0 0.0
17/11:30am 33.0 31.0 13.8 31 11.9 W 17 28 9 15 1007.8 1005.3 0.0
17/11:00am 32.2 31.0 15.1 35 10.8 W 15 30 8 16 1008.1 1005.7 0.0
17/10:30am 31.0 29.9 15.3 38 9.9 WNW 15 24 8 13 1008.6 1006.1 0.0
17/10:00am 30.5 28.9 16.0 41 9.2 WNW 19 32 10 17 1008.7 1006.2 0.0
17/09:30am 30.1 29.8 16.5 44 8.7 W 13 32 7 17 1008.7 1006.2 0.0
17/09:00am 28.9 28.9 16.3 46 8.0 W 11 20 6 11 1008.7 1006.2 3.4
17/08:30am 27.9 27.0 15.8 47 7.6 WNW 15 20 8 11 1008.8 1006.3 3.4
17/08:00am 27.1 27.7 15.7 49 7.1 NW 7 17 4 9 1009.0 1006.5 3.4
17/07:30am 24.7 27.4 17.8 65 4.4 CALM 0 0 0 0 1009.2 1006.7 3.4
17/07:00am 22.8 25.7 18.1 75 3.0 CALM 0 0 0 0 1009.0 1006.5 3.4
17/06:30am 21.1 23.7 17.4 79 2.3 CALM 0 0 0 0 1008.7 1006.2 3.4
17/06:00am 19.2 21.8 17.4 89 1.1 CALM 0 0 0 0 1008.5 1006.0 3.4
17/05:30am 18.9 20.8 16.8 87 1.3 SW 2 7 1 4 1008.1 1005.7 3.4
17/05:00am 18.6 20.6 17.0 90 1.0 WNW 2 7 1 4 1007.5 1005.0 3.4
17/04:30am 18.6 20.8 16.6 88 1.2 CALM 0 0 0 0 1007.1 1004.6 3.4
17/04:00am 19.2 21.5 16.8 86 1.5 CALM 0 0 0 0 1006.7 1004.2 3.4
17/03:30am 19.0 21.5 17.2 89 1.1 CALM 0 0 0 0 1006.6 1004.1 3.4
17/03:00am 19.3 21.9 17.4 89 1.2 CALM 0 6 0 3 1006.5 1004.0 3.2
17/02:30am 20.1 21.8 17.2 83 1.8 ENE 4 9 2 5 1006.4 1003.9 3.2
17/02:00am 21.4 21.7 15.9 71 3.4 E 9 11 5 6 1006.7 1004.2 3.2
17/01:30am 21.8 21.7 16.1 70 3.5 N 11 15 6 8 1007.1 1004.6 3.2
17/01:00am 21.5 22.0 16.5 73 3.1 NNE 9 11 5 6 1007.4 1004.9 3.2
17/12:30am 22.3 21.1 16.0 67 3.9 N 17 20 9 11 1007.8 1005.3 3.2
17/12:00am 22.2 22.7 16.6 70 3.5 NNW 9 13 5 7 1008.2 1005.8 3.2
 
Date/Time
EST
Temp
°C
App
Temp
°C
Dew
Point
Rel
Hum
%
Delta-T
°C
Wind Press
QNH
hPa
Press
MSL
hPa
Rain
since 9 am
mm
Dir
 
Spd
km/h
Gust
km/h
Spd
kts
Gust
kts
16/11:30pm 21.3 21.5 17.7 80 2.3 N 13 17 7 9 1008.7 1006.2 3.2
16/11:00pm 23.6 23.4 15.6 61 4.9 WSW 11 17 6 9 1010.4 1008.0 3.2
16/10:30pm 22.5 25.7 18.9 80 2.3 CALM 0 0 0 0 1010.8 1008.3 3.2
16/10:00pm 23.0 25.8 18.0 73 3.2 CALM 0 6 0 3 1010.6 1008.1 3.2
16/09:30pm 23.2 24.4 17.3 69 3.7 SW 7 11 4 6 1010.1 1007.7 3.2
16/09:00pm 22.5 25.1 17.6 74 3.1 CALM 0 0 0 0 1009.7 1007.2 3.2
16/08:30pm 21.4 22.4 17.8 80 2.3 WNW 9 13 5 7 1009.1 1006.6 3.2
16/08:22pm 21.3 20.4 17.7 80 2.3 WSW 19 32 10 17 1009.1 1006.6 3.2
16/08:08pm 26.3 22.0 14.3 47 7.3 SW 30 52 16 28 1008.6 1006.1 0.0
16/08:00pm 27.3 26.1 16.0 50 7.1 N 17 39 9 21 1008.2 1005.8 0.0
16/07:30pm 27.5 25.1 16.3 50 7.1 NNE 24 28 13 15 1005.8 1003.3 0.0
16/07:00pm 28.9 27.2 15.7 44 8.3 NNE 19 22 10 12 1005.5 1003.0 0.0
16/06:30pm 30.3 28.4 14.1 37 10.0 N 17 22 9 12 1005.5 1003.0 0.0
16/06:00pm 31.9 30.5 12.2 30 11.9 NNW 11 15 6 8 1005.3 1002.8 0.0
16/05:30pm 32.0 29.4 11.9 29 12.0 NNW 17 24 9 13 1005.2 1002.7 0.0
16/05:00pm 32.7 30.0 11.8 28 12.6 NW 17 24 9 13 1005.1 1002.6 0.0
16/04:30pm 32.2 30.5 12.4 30 12.0 NW 13 20 7 11 1005.0 1002.5 0.0
16/04:00pm 32.8 31.8 13.5 31 11.9 NW 11 22 6 12 1005.2 1002.7 0.0
16/03:30pm 33.1 31.0 11.2 26 13.0 W 13 20 7 11 1005.6 1003.1 0.0
16/03:00pm 32.7 32.5 11.8 28 12.6 NNE 4 26 2 14 1006.1 1003.5 0.0
16/02:30pm 32.3 30.5 12.1 29 12.2 NW 13 22 7 12 1006.8 1004.3 0.0
16/02:00pm 31.6 30.0 13.8 34 11.0 NW 15 26 8 14 1007.2 1004.7 0.0
16/01:30pm 31.7 31.2 14.8 36 10.6 NW 11 22 6 12 1007.6 1005.1 0.0
16/01:00pm 31.0 30.3 14.2 36 10.4 N 11 24 6 13 1007.9 1005.4 0.0
16/12:30pm 30.0 28.9 14.3 38 9.7 NNW 13 22 7 12 1008.4 1005.9 0.0
16/12:00pm 29.4 28.8 13.5 37 9.7 WSW 9 20 5 11 1009.0 1006.5 0.0
16/11:30am 28.4 28.0 15.2 44 8.2 NW 11 20 6 11 1009.5 1007.0 0.0
16/11:00am 27.8 26.5 14.9 45 8.0 WNW 15 22 8 12 1010.1 1007.7 0.0
16/10:30am 26.8 26.4 16.1 52 6.7 NW 13 19 7 10 1010.2 1007.8 0.0
16/10:00am 25.5 24.7 16.0 55 5.9 NW 15 24 8 13 1010.7 1008.2 0.0
16/09:30am 24.3 24.7 16.3 61 5.0 WNW 9 22 5 12 1011.0 1008.5 0.0
16/09:00am 23.5 24.2 16.1 63 4.6 NNW 7 17 4 9 1011.4 1008.9 0.0
16/08:30am 22.4 22.4 15.3 64 4.3 NNW 9 15 5 8 1011.6 1009.1 0.0
16/08:00am 20.8 22.0 15.0 69 3.5 E 2 7 1 4 1011.8 1009.4 0.0
16/07:30am 19.4 19.4 14.1 71 3.1 S 7 9 4 5 1011.7 1009.2 0.0
16/07:00am 18.0 18.5 13.9 77 2.4 SSW 4 7 2 4 1011.8 1009.4 0.0
16/06:30am 16.9 18.0 13.4 80 2.0 CALM 0 0 0 0 1011.7 1009.2 0.0
16/06:00am 15.8 16.9 13.5 86 1.3 CALM 0 0 0 0 1011.5 1009.0 0.0

Other Formats:

Comma delimited format used in spreadsheet applications
http://www.bom.gov.au/fwo/IDQ60801/IDQ60801.94555.axf

JavaScript Object Notation format (JSON) in row-major order
http://www.bom.gov.au/fwo/IDQ60801/IDQ60801.94555.json